Tracking 17264 objects as of 1-September-2015
HD Live streaming from Space Station

COSMOS 778

Track COSMOS 778 now!
10-day predictions
COSMOS 778 is classified as:


NORAD ID: 8419
Int'l Code: 1975-103A
Perigee: 973.5 km
Apogee: 1,007.4 km
Inclination: 83.0 °
Period: 104.8 minutes
Semi major axis: 7361 km
RCS: 2.3884 m2 (large)
Launch date: November 4, 1975
Source: Commonwealth of Independent States (former USSR) (CIS)
Your satellite tracking list
Your tracking list is empty





NASA's NSSDC Master Catalog

Two Line Element Set (TLE):
1 08419U 75103A   15243.57298588  .00000058  00000-0  44781-4 0  9996
2 08419 082.9768 319.8190 0023025 057.5454 057.1319 13.74549861997152

Source of the keplerian elements: AFSPC

N2YO: 270